[[{"header":{"parameterUnit":"m.s-1","parameterCategory":1,"la1":30.2991,"la2":30.254,"lo1":-89.0895,"lo2":-89.0444,"dy":0.0017,"dx":0.0017,"nx":28,"ny":28,"refTime":"2024-07-28T09:00:00:Z","depth":0,"parameterNumber":2,"parameterNumberName":"U-component_of_WINDS"},"data":[0,0,0,0,0,0,0,0,0,0,0,0,0,0,0,0,0,0,0,0,0,0,0,0,0,0,0,0,0,0,0,0,0,0,0,0,0,0,0,0,0,0,0,0,0,0,0,0,0,0,0,0,0,0,0,0,0,0,5.1811,5.1813,0,5.1982,5.1984,5.1986,5.1914,5.191,5.1906,5.1902,5.2081,5.209,5.2098,0,0,0,0,0,0,0,0,0,0,0,0,0,5.1422,5.143,5.1811,5.1813,5.1815,5.1982,5.1984,5.1987,5.1915,5.191,5.1905,5.19,5.2078,5.2088,5.2099,0,0,0,0,0,0,0,0,0,0,0,0,0,5.1592,5.1432,5.181,5.1799,5.18,5.1982,5.1984,5.1987,5.1916,5.191,5.1904,5.1898,5.2075,5.2087,5.21,5.2304,0,0,5.214,5.2145,0,0,0,0,0,0,0,0,5.1583,5.1606,5.1799,5.18,5.1801,5.192,5.1913,5.2094,5.1918,5.1872,5.1902,5.1895,5.2033,5.2049,5.2095,5.2312,5.232,5.2141,5.2149,5.2154,5.2158,0,0,0,0,0,0,0,5.1571,5.1599,5.1879,5.1802,5.1803,5.1786,5.1803,5.1947,5.1985,5.1876,5.1871,5.1892,5.2032,5.2083,5.2098,5.2323,5.2141,5.2152,5.216,5.2165,5.2713,5.2719,0,0,0,0,0,0,5.1559,5.1589,5.1873,5.1884,5.1674,5.1798,5.1817,5.1889,5.1983,5.1992,5.1897,5.1888,5.2063,5.2083,5.2104,5.2347,5.2154,5.2166,5.2174,5.2706,5.2714,5.2722,0,0,0,0,0,0,5.1551,5.1585,5.1866,5.1735,5.177,5.1811,5.1892,5.1895,5.1945,5.2,5.2006,5.1941,5.2059,5.2086,5.2254,5.2352,5.2172,5.2184,5.2698,5.2709,5.2718,5.2835,0,0,0,0,0,0,5.154,5.1582,5.166,5.1738,5.1777,5.2013,5.1898,5.1903,5.1967,5.1957,5.2043,5.2051,5.2057,5.2235,5.2267,5.2367,5.2194,5.2689,5.2703,5.2715,5.2823,5.2848,5.287,0,0,0,0,0,5.1526,5.1687,5.1664,5.1699,5.1875,5.2019,5.2041,5.2044,5.1975,5.2054,5.2088,5.2048,5.2337,5.2253,5.2288,5.2393,5.2683,5.2699,5.2714,5.2812,5.2843,5.2869,0,0,0,0,0,0,5.1622,5.1698,5.1673,5.1864,5.1935,5.2006,5.2105,5.2077,5.217,5.2157,5.2157,5.2177,5.2349,5.2388,5.2294,5.2594,5.2499,5.2523,5.2562,5.2592,5.2615,5.2602,5.2205,0,0,0,0,0,5.1665,5.1775,5.1835,5.1998,5.2035,5.2064,5.2127,5.2122,5.2197,5.2227,5.2274,5.2348,5.2455,5.2526,5.2628,5.2828,5.2845,5.2918,5.2941,5.296,5.298,5.3086,5.3119,5.2772,5.2772,5.2771,0,0,5.1756,5.1811,5.1881,5.2019,5.2073,5.2187,5.209,5.2215,5.2299,5.2246,5.2406,5.2444,5.2527,5.2711,5.2794,5.2748,5.3079,5.298,5.2995,5.3004,5.3106,5.3138,5.3167,5.2782,5.278,5.2779,0,0,5.1979,5.2032,5.2172,5.2229,5.2312,5.233,5.2363,5.2439,5.2461,5.2621,5.2583,5.2683,5.2868,5.2928,5.2983,5.3226,5.3192,5.3259,5.3382,5.3486,5.3513,5.3538,5.3622,5.3653,5.3279,5.3279,5.3279,0,5.2082,5.2251,5.2248,5.2376,5.2437,5.2392,5.2534,5.2589,5.2702,5.2745,5.2692,5.2921,5.2974,5.317,5.3229,5.3276,5.3313,5.3249,5.3509,5.3534,5.3556,5.3637,5.3669,5.3287,5.3286,5.3285,5.3284,0,5.2372,5.249,5.2593,5.2701,5.2774,5.2908,5.2926,5.3,5.2989,5.3012,5.3175,5.3236,5.3348,5.3395,5.3386,5.359,5.3558,5.3508,5.3413,5.3597,5.3673,5.3704,5.3297,5.3295,5.3293,5.3291,0,0,5.2662,5.2764,5.2802,5.2849,5.2937,5.3028,5.316,5.3268,5.333,5.341,5.3519,5.3675,5.3628,5.369,5.3687,5.3779,5.3964,5.3716,5.3718,5.3759,5.419,5.4227,5.4263,5.3942,5.3948,5.3953,5.4182,0,5.289,5.3119,5.3119,5.3331,5.3438,5.3396,5.351,5.3576,5.3602,5.3697,5.3724,5.3834,5.3765,5.3801,5.389,5.3923,5.4051,5.3907,5.4044,5.4049,5.4023,5.4303,5.4343,5.4556,5.4212,5.4218,5.4221,0,5.3188,5.3274,5.3495,5.3564,5.3609,5.3712,5.381,5.3901,5.3975,5.3986,5.4055,5.4037,5.417,5.4071,5.4254,5.4156,5.4212,5.4236,5.4245,5.4257,5.4145,5.4321,5.4625,5.4656,5.4268,5.4265,5.4261,0,5.3374,5.3546,5.37,5.3742,5.3827,5.39,5.3939,5.4006,5.407,5.4156,5.4197,5.4298,5.4353,5.4431,5.4441,5.4368,5.4624,5.4527,5.4637,5.4637,5.4692,5.4689,5.5008,5.4731,5.4731,5.473,5.4729,0,5.3629,5.3766,5.3784,5.3879,5.403,5.403,5.418,5.4212,5.4272,5.4372,5.4343,5.4437,5.4445,5.4542,5.4551,5.47,5.4726,5.4738,5.4739,5.474,5.4738,5.4776,5.4761,5.4739,5.4737,5.4735,5.4734,0,5.3863,5.3882,5.4046,5.4112,5.4132,5.424,5.4297,5.4387,5.4408,5.4535,5.4564,5.4598,5.4711,5.4728,5.4861,5.4867,5.5045,5.5031,5.5019,5.5017,5.5125,5.5114,5.5479,5.5526,5.522,5.5223,5.5226,0,5.4024,5.4128,5.4204,5.4268,5.431,5.4414,5.4478,5.4481,5.4549,5.4639,5.4718,5.4827,5.4915,5.5096,5.5133,5.5234,5.5221,5.5342,5.5236,5.5233,5.5221,5.5214,5.5223,5.5362,5.5365,5.5368,5.537,0,5.4307,5.4309,5.4403,5.4499,5.4576,5.4652,5.4724,5.4779,5.4791,5.4869,5.4982,5.505,5.5184,5.5292,5.5392,5.5432,5.5403,5.5403,5.5434,5.5436,5.5424,5.5429,5.5073,5.5395,5.5392,5.5391,5.5389,5.5388,5.4508,5.4597,5.4664,5.4768,5.4822,5.4889,5.4975,5.5006,5.5101,5.5209,5.5205,5.533,5.5398,5.5528,5.5575,5.5672,5.5633,5.5678,5.5689,5.57,5.5709,5.5409,5.5691,5.569,5.569,5.5689,5.5689,0,5.4787,5.4827,5.4923,5.5023,5.5105,5.5069,5.5146,5.5217,5.5326,5.5392,5.5478,5.5607,5.5711,5.5755,5.5857,5.5926,5.5915,5.5953,5.5947,5.5956,5.574,5.5702,5.596,5.596,5.5959,5.5959,5.5959,5.5959,5.4942,5.509,5.5101,5.5274,5.5313,5.5434,5.5481,5.5542,5.5594,5.5739,5.5825,5.5852,5.5909,5.6014,5.6108,5.6118,5.6156,5.6199,5.6203,5.6,5.5972,5.5946,5.591,5.6208,5.6208,5.6411,5.6413,5.6415]},{"header":{"parameterUnit":"m.s-1","parameterCategory":1,"la1":30.2991,"la2":30.254,"lo1":-89.0895,"lo2":-89.0444,"dy":0.0017,"dx":0.0017,"nx":28,"ny":28,"refTime":"2024-07-28T09:00:00:Z","depth":0,"parameterNumber":3,"parameterNumberName":"V-component_of_WINDS"},"data":[0,0,0,0,0,0,0,0,0,0,0,0,0,0,0,0,0,0,0,0,0,0,0,0,0,0,0,0,0,0,0,0,0,0,0,0,0,0,0,0,0,0,0,0,0,0,0,0,0,0,0,0,0,0,0,0,0,0,0.4334,0.4334,0,0.4324,0.4324,0.4324,0.4286,0.4285,0.4284,0.4284,0.4276,0.4276,0.4277,0,0,0,0,0,0,0,0,0,0,0,0,0,0.432,0.432,0.4334,0.4334,0.4333,0.4324,0.4324,0.4324,0.4286,0.4285,0.4284,0.4283,0.4275,0.4276,0.4277,0,0,0,0,0,0,0,0,0,0,0,0,0,0.432,0.432,0.4334,0.4313,0.4312,0.4324,0.4324,0.4324,0.4287,0.4285,0.4284,0.4283,0.4275,0.4276,0.4277,0.4309,0,0,0.428,0.428,0,0,0,0,0,0,0,0,0.432,0.432,0.4317,0.4315,0.4313,0.4305,0.4316,0.4319,0.4287,0.4296,0.4284,0.4282,0.4287,0.4287,0.4288,0.4309,0.4308,0.428,0.428,0.4281,0.4281,0,0,0,0,0,0,0,0.432,0.4321,0.433,0.4317,0.4314,0.4305,0.4304,0.4317,0.4299,0.4295,0.4292,0.4292,0.4285,0.4287,0.4287,0.4308,0.428,0.4281,0.4281,0.4282,0.4354,0.4355,0,0,0,0,0,0,0.4323,0.4321,0.433,0.433,0.4313,0.4306,0.4305,0.4309,0.4299,0.4296,0.4293,0.429,0.4286,0.4286,0.4287,0.4323,0.4281,0.4282,0.4282,0.4352,0.4354,0.4355,0,0,0,0,0,0,0.4322,0.4324,0.4331,0.4324,0.4325,0.4308,0.4313,0.4309,0.4311,0.4297,0.4294,0.4298,0.4285,0.4286,0.4303,0.4322,0.4282,0.4283,0.4351,0.4353,0.4355,0.4396,0,0,0,0,0,0,0.4322,0.4324,0.4336,0.4325,0.4325,0.4347,0.4314,0.431,0.4312,0.4308,0.4301,0.4298,0.4284,0.4302,0.4304,0.4323,0.4284,0.4349,0.4351,0.4354,0.4393,0.4399,0.4405,0,0,0,0,0,0.4322,0.4349,0.4337,0.4338,0.434,0.4349,0.4349,0.4332,0.4314,0.4326,0.4317,0.4298,0.432,0.4304,0.4306,0.4325,0.4348,0.4351,0.4354,0.439,0.4398,0.4405,0,0,0,0,0,0,0.4363,0.4347,0.4334,0.4358,0.4355,0.4342,0.4357,0.434,0.4343,0.4339,0.4318,0.4317,0.4338,0.4333,0.4316,0.4355,0.433,0.4334,0.4358,0.4365,0.4371,0.4372,0.4284,0,0,0,0,0,0.4375,0.4383,0.4369,0.4391,0.439,0.4374,0.4377,0.4364,0.436,0.4359,0.4351,0.4349,0.4355,0.4359,0.4364,0.4392,0.4389,0.4406,0.4411,0.4416,0.442,0.4434,0.4441,0.4365,0.4365,0.4365,0,0,0.44,0.4392,0.4399,0.4399,0.4396,0.4405,0.4373,0.4385,0.4391,0.4361,0.4377,0.4371,0.4367,0.439,0.4399,0.4386,0.444,0.442,0.4424,0.4425,0.4437,0.4445,0.4451,0.4367,0.4367,0.4367,0,0,0.445,0.4445,0.4463,0.4459,0.4453,0.4442,0.4446,0.4435,0.443,0.4446,0.4423,0.443,0.4441,0.4439,0.4439,0.4487,0.447,0.4489,0.452,0.4533,0.4539,0.4544,0.4561,0.4567,0.4492,0.4492,0.4492,0,0.4482,0.4494,0.4474,0.4486,0.4487,0.4459,0.4477,0.4475,0.4471,0.4472,0.4458,0.447,0.4465,0.4487,0.4498,0.4499,0.4503,0.449,0.454,0.4545,0.4549,0.4565,0.4571,0.4495,0.4494,0.4494,0.4494,0,0.4534,0.4543,0.4558,0.4554,0.4556,0.4572,0.4553,0.4558,0.4544,0.4534,0.455,0.4543,0.4546,0.4549,0.4537,0.4569,0.4561,0.4543,0.4518,0.4559,0.4574,0.4579,0.4498,0.4497,0.4496,0.4496,0,0,0.4611,0.4595,0.4601,0.4598,0.4589,0.4595,0.4609,0.461,0.4615,0.4613,0.4623,0.4632,0.4616,0.4616,0.4602,0.4614,0.4651,0.4595,0.4594,0.4606,0.4686,0.47,0.4707,0.4639,0.464,0.4641,0.4686,0,0.4659,0.4681,0.4662,0.4688,0.4695,0.4668,0.4679,0.4675,0.4666,0.4671,0.466,0.4667,0.4645,0.4644,0.4655,0.4645,0.4667,0.4641,0.465,0.465,0.4652,0.4714,0.4729,0.4772,0.4692,0.4693,0.4693,0,0.4718,0.4717,0.4744,0.4731,0.4734,0.4745,0.4744,0.4749,0.4743,0.4735,0.4735,0.4717,0.473,0.4704,0.4721,0.4703,0.4705,0.4701,0.4702,0.4703,0.4675,0.4717,0.4785,0.4792,0.4702,0.4701,0.4701,0,0.4772,0.4778,0.4794,0.4792,0.4779,0.4787,0.4781,0.4774,0.4776,0.4775,0.4776,0.4777,0.4778,0.4779,0.4762,0.4745,0.478,0.4754,0.4775,0.4775,0.4784,0.4784,0.4854,0.4785,0.4785,0.4785,0.4784,0,0.4828,0.4845,0.4818,0.4828,0.4846,0.4824,0.4842,0.4834,0.4827,0.4835,0.4811,0.4819,0.4796,0.4802,0.4788,0.4804,0.4804,0.4799,0.4795,0.4801,0.4802,0.4803,0.48,0.4786,0.4786,0.4786,0.4785,0,0.4892,0.4874,0.489,0.4875,0.4871,0.4885,0.4872,0.4881,0.4869,0.4879,0.4881,0.4862,0.4867,0.485,0.4853,0.4844,0.4867,0.4858,0.4869,0.4866,0.4888,0.4886,0.4962,0.497,0.4895,0.4896,0.4897,0,0.4929,0.4941,0.4927,0.493,0.4925,0.4931,0.4932,0.491,0.4913,0.4906,0.4915,0.4918,0.4919,0.4928,0.4916,0.4917,0.4909,0.4935,0.4909,0.4914,0.4909,0.4909,0.491,0.4941,0.4941,0.4942,0.4943,0,0.4996,0.4986,0.4989,0.4988,0.499,0.4988,0.4985,0.4989,0.4965,0.4969,0.4973,0.4974,0.4976,0.4979,0.4978,0.4972,0.4954,0.4951,0.4956,0.4963,0.4968,0.4965,0.4884,0.495,0.4949,0.4948,0.4948,0.4948,0.5048,0.5057,0.5048,0.5051,0.5046,0.5043,0.505,0.5039,0.5042,0.5041,0.5028,0.5035,0.5027,0.5023,0.5019,0.5024,0.5012,0.5019,0.5021,0.5024,0.5027,0.4967,0.5024,0.5024,0.5024,0.5023,0.5023,0,0.5114,0.5106,0.5109,0.5105,0.5107,0.5088,0.5084,0.5087,0.5093,0.5087,0.5088,0.5093,0.5095,0.5082,0.5083,0.5089,0.5081,0.509,0.509,0.5089,0.5038,0.5034,0.5097,0.5097,0.5097,0.5097,0.5097,0.5097,0.5149,0.5163,0.5152,0.5164,0.5156,0.5162,0.5161,0.5158,0.5153,0.5159,0.516,0.5151,0.5142,0.5142,0.5143,0.5139,0.514,0.5153,0.5146,0.5099,0.5092,0.5086,0.5081,0.5153,0.5153,0.5196,0.5196,0.5197]}]]